TimeICT,TemperatureF,Dew PointF,Humidity,Sea Level PressureIn,VisibilityMPH,Wind Direction,Wind SpeedMPH,Gust SpeedMPH,PrecipitationIn,Events,Conditions,WindDirDegrees,DateUTC
12:00 AM,78.8,75.2,89,29.80,3.1,East,10.4,-,N/A,Rain,Rain,80,2013-11-11 17:00:00
12:30 AM,78.8,75.2,89,29.80,3.1,ENE,10.4,-,N/A,Rain,Rain,70,2013-11-11 17:30:00
1:00 AM,77.0,73.4,89,29.80,1.9,ENE,8.1,-,N/A,Rain,Rain,60,2013-11-11 18:00:00
1:30 AM,77.0,73.4,89,29.77,3.1,NE,6.9,-,N/A,,Mostly Cloudy,50,2013-11-11 18:30:00
2:00 AM,77.0,73.4,89,29.77,1.9,ENE,8.1,-,N/A,Rain,Rain,70,2013-11-11 19:00:00
2:30 AM,75.2,73.4,94,29.77,3.1,NE,4.6,-,N/A,Rain,Rain,50,2013-11-11 19:30:00
3:00 AM,77.0,73.4,89,29.77,3.1,ENE,4.6,-,N/A,Rain,Rain,60,2013-11-11 20:00:00
3:30 AM,75.2,73.4,94,29.77,3.1,Variable,1.2,-,N/A,,Mostly Cloudy,0,2013-11-11 20:30:00
4:00 AM,75.2,73.4,94,29.77,4.3,East,3.5,-,N/A,,Mostly Cloudy,90,2013-11-11 21:00:00
5:00 AM,77.0,73.4,89,29.77,4.3,Variable,2.3,-,N/A,,Mostly Cloudy,0,2013-11-11 22:00:00
5:30 AM,77.0,73.4,89,29.77,4.3,Variable,1.2,-,N/A,,Mostly Cloudy,0,2013-11-11 22:30:00
6:00 AM,77.0,73.4,89,29.77,4.3,Variable,3.5,-,N/A,,Mostly Cloudy,0,2013-11-11 23:00:00
6:30 AM,75.2,73.4,94,29.77,5.0,Calm,Calm,-,N/A,,Mostly Cloudy,0,2013-11-11 23:30:00
7:00 AM,76,75,96,29.74,6,East,5.8,,,,Partly Cloudy,100,2013-11-12 00:00:00
7:00 AM,77.0,73.4,89,29.80,5.0,East,8.1,-,N/A,,Mostly Cloudy,100,2013-11-12 00:00:00
8:00 AM,78.8,73.4,83,29.77,5.0,ESE,11.5,-,N/A,,Mostly Cloudy,110,2013-11-12 01:00:00
8:30 AM,80.6,73.4,79,29.80,6.2,East,5.8,-,N/A,,Mostly Cloudy,100,2013-11-12 01:30:00
9:00 AM,82.4,75.2,79,29.80,6.2,East,11.5,-,N/A,,Mostly Cloudy,90,2013-11-12 02:00:00
9:30 AM,84.2,75.2,74,29.80,6.2,East,12.7,-,N/A,,Mostly Cloudy,90,2013-11-12 02:30:00
10:00 AM,86.0,73.4,66,29.80,6.2,ESE,12.7,-,N/A,,Mostly Cloudy,110,2013-11-12 03:00:00
10:30 AM,84.2,75.2,74,29.80,6.2,ESE,9.2,-,N/A,,Mostly Cloudy,110,2013-11-12 03:30:00
11:00 AM,86.0,75.2,70,29.80,6.2,ESE,10.4,-,N/A,,Mostly Cloudy,110,2013-11-12 04:00:00
11:30 AM,86.0,73.4,66,29.80,6.2,East,11.5,-,N/A,,Mostly Cloudy,90,2013-11-12 04:30:00
12:00 PM,86.0,73.4,66,29.77,6.2,East,13.8,-,N/A,,Mostly Cloudy,100,2013-11-12 05:00:00
12:30 PM,86.0,73.4,66,29.77,6.2,East,10.4,-,N/A,,Mostly Cloudy,100,2013-11-12 05:30:00
1:00 PM,86,77,67,29.73,6,East,9.2,,,,Scattered Clouds,90,2013-11-12 06:00:00
1:00 PM,86.0,75.2,70,29.74,6.2,East,9.2,-,N/A,,Mostly Cloudy,100,2013-11-12 06:00:00
1:30 PM,86.0,73.4,66,29.71,6.2,East,10.4,-,N/A,,Mostly Cloudy,90,2013-11-12 06:30:00
2:00 PM,86.0,75.2,70,29.71,6.2,ESE,10.4,-,N/A,,Mostly Cloudy,120,2013-11-12 07:00:00
2:30 PM,87.8,73.4,62,29.71,6.2,East,6.9,-,N/A,,Mostly Cloudy,90,2013-11-12 07:30:00
3:00 PM,87.8,73.4,62,29.68,6.2,East,8.1,-,N/A,,Mostly Cloudy,100,2013-11-12 08:00:00
3:30 PM,86.0,73.4,66,29.68,6.2,East,5.8,-,N/A,,Mostly Cloudy,80,2013-11-12 08:30:00
4:00 PM,87,76,62,29.68,6,East,3.5,,,,Scattered Clouds,90,2013-11-12 09:00:00
4:00 PM,86.0,75.2,70,29.68,6.2,East,4.6,-,N/A,,Mostly Cloudy,100,2013-11-12 09:00:00
4:30 PM,84.2,75.2,74,29.71,6.2,SSE,3.5,-,N/A,,Mostly Cloudy,150,2013-11-12 09:30:00
5:00 PM,84.2,75.2,74,29.71,6.2,Calm,Calm,-,N/A,,Mostly Cloudy,0,2013-11-12 10:00:00
5:30 PM,82.4,75.2,79,29.71,5.6,Variable,1.2,-,N/A,,Mostly Cloudy,0,2013-11-12 10:30:00
6:00 PM,82.4,77.0,84,29.74,5.6,Variable,2.3,-,N/A,,Mostly Cloudy,0,2013-11-12 11:00:00
6:30 PM,80.6,75.2,84,29.74,5.6,Calm,Calm,-,N/A,,Mostly Cloudy,0,2013-11-12 11:30:00
7:00 PM,84,78,76,29.71,6,Calm,Calm,,,,Scattered Clouds,,2013-11-12 12:00:00
7:00 PM,78.8,75.2,89,29.74,5.6,Calm,Calm,-,N/A,,Mostly Cloudy,0,2013-11-12 12:00:00
7:30 PM,78.8,75.2,89,29.77,5.6,Calm,Calm,-,N/A,,Mostly Cloudy,0,2013-11-12 12:30:00
8:00 PM,78.8,75.2,89,29.77,5.6,Calm,Calm,-,N/A,,Mostly Cloudy,0,2013-11-12 13:00:00
8:30 PM,82.4,75.2,79,29.80,5.6,NW,5.8,-,N/A,,Mostly Cloudy,310,2013-11-12 13:30:00
9:00 PM,82.4,75.2,79,29.80,5.6,West,8.1,-,N/A,,Mostly Cloudy,270,2013-11-12 14:00:00
9:30 PM,82.4,75.2,79,29.80,5.0,WNW,6.9,-,N/A,,Mostly Cloudy,290,2013-11-12 14:30:00
10:00 PM,83,78,81,29.76,6,West,3.5,,,Thunderstorm,Thunderstorm,260,2013-11-12 15:00:00
10:00 PM,82.4,75.2,79,29.80,5.0,NW,8.1,-,N/A,Thunderstorm,Thunderstorm,310,2013-11-12 15:00:00
10:30 PM,80.6,75.2,84,29.80,5.0,SSW,3.5,-,N/A,Thunderstorm,Thunderstorm,210,2013-11-12 15:30:00
11:00 PM,80.6,75.2,84,29.83,4.3,ESE,4.6,-,N/A,Rain,Rain,120,2013-11-12 16:00:00
11:30 PM,77.0,73.4,89,29.83,1.9,East,5.8,-,N/A,Rain,Rain,100,2013-11-12 16:30:00